| time (UTC) | temp F | wind direction | speed MPH | gust MPH | rain 1hr in | rain 24hr in | rain mn in | humidity % | barometer mb |
| 20260508170803 | 69 | 279 | 6.0 | 18.0 | 0.00 | 0.00 | 0.00 | 39 | 1014.2 |
| 20260508165805 | 68 | 267 | 7.0 | 16.0 | 0.00 | 0.00 | 0.00 | 40 | 1014.3 |
| 20260508164804 | 69 | 239 | 10.0 | 20.0 | 0.00 | 0.00 | 0.00 | 38 | 1014.5 |
| 20260508162804 | 67 | 255 | 8.0 | 16.0 | 0.00 | 0.00 | 0.00 | 40 | 1014.5 |
| 20260508162306 | 67 | 228 | 6.0 | 17.0 | 0.00 | 0.00 | 0.00 | 38 | 1014.6 |
| 20260508161804 | 67 | 244 | 9.0 | 17.0 | 0.00 | 0.00 | 0.00 | 39 | 1014.6 |
| 20260508160304 | 67 | 247 | 3.0 | 14.0 | 0.00 | 0.00 | 0.00 | 41 | 1014.7 |
| 20260508153304 | 65 | 222 | 3.0 | 13.0 | 0.00 | 0.00 | 0.00 | 42 | 1015.3 |
| 20260508152804 | 65 | 254 | 6.0 | 15.0 | 0.00 | 0.00 | 0.00 | 42 | 1015.3 |
| 20260508152306 | 66 | 251 | 6.0 | 15.0 | 0.00 | 0.00 | 0.00 | 42 | 1015.2 |
| 20260508151804 | 65 | 240 | 3.0 | 10.0 | 0.00 | 0.00 | 0.00 | 45 | 1015.3 |
| 20260508145307 | 63 | 255 | 4.0 | 12.0 | 0.00 | 0.00 | 0.00 | 43 | 1015.4 |
| 20260508144304 | 62 | 203 | 3.0 | 14.0 | 0.00 | 0.00 | 0.00 | 43 | 1015.4 |
| 20260508135306 | 59 | 216 | 5.0 | 10.0 | 0.00 | 0.00 | 0.00 | 44 | 1015.9 |
| 20260508134804 | 59 | 164 | 2.0 | 10.0 | 0.00 | 0.00 | 0.00 | 42 | 1015.9 |
| 20260508134304 | 60 | 222 | 5.0 | 10.0 | 0.00 | 0.00 | 0.00 | 43 | 1015.9 |
| 20260508133805 | 60 | 256 | 3.0 | 10.0 | 0.00 | 0.00 | 0.00 | 43 | 1016.0 |
| 20260508132804 | 59 | 201 | 3.0 | 6.0 | 0.00 | 0.00 | 0.00 | 44 | 1016.2 |
| 20260508132306 | 58 | 236 | 2.0 | 6.0 | 0.00 | 0.00 | 0.00 | 43 | 1016.2 |
| 20260508131804 | 57 | 270 | 3.0 | 6.0 | 0.00 | 0.00 | 0.00 | 46 | 1016.1 |
| 20260508130304 | 57 | 203 | 2.0 | 6.0 | 0.00 | 0.00 | 0.00 | 51 | 1016.1 |
| 20260508125804 | 56 | 269 | 2.0 | 6.0 | 0.00 | 0.00 | 0.00 | 52 | 1016.1 |
| 20260508125306 | 56 | 304 | 2.0 | 6.0 | 0.00 | 0.00 | 0.00 | 51 | 1016.2 |
| 20260508122804 | 55 | 289 | 2.0 | 3.0 | 0.00 | 0.00 | 0.00 | 62 | 1016.2 |
| 20260508121304 | 54 | 300 | 2.0 | 6.0 | 0.00 | 0.00 | 0.00 | 65 | 1016.1 |
| 20260508120804 | 54 | 269 | 2.0 | 6.0 | 0.00 | 0.00 | 0.00 | 65 | 1016.1 |
| 20260508115804 | 53 | 284 | 1.0 | 3.0 | 0.00 | 0.00 | 0.00 | 69 | 1016.0 |
| 20260508114804 | 51 | 282 | 2.0 | 6.0 | 0.00 | 0.00 | 0.00 | 69 | 1015.9 |
| 20260508113806 | 51 | 272 | 2.0 | 3.0 | 0.00 | 0.00 | 0.00 | 72 | 1015.8 |
| 20260508113306 | 50 | 271 | 2.0 | 3.0 | 0.00 | 0.00 | 0.00 | 72 | 1015.8 |
| 20260508112804 | 49 | 272 | 2.0 | 3.0 | 0.00 | 0.00 | 0.00 | 73 | 1015.8 |
| 20260508112306 | 48 | 271 | 2.0 | 6.0 | 0.00 | 0.00 | 0.00 | 74 | 1015.8 |
| 20260508111304 | 47 | 273 | 1.0 | 3.0 | 0.00 | 0.00 | 0.00 | 77 | 1015.6 |
| 20260508110804 | 46 | 279 | 2.0 | 3.0 | 0.00 | 0.00 | 0.00 | 79 | 1015.6 |
| 20260508110304 | 46 | 259 | 1.0 | 3.0 | 0.00 | 0.00 | 0.00 | 80 | 1015.6 |
| 20260508105804 | 45 | 258 | 1.0 | 3.0 | 0.00 | 0.00 | 0.00 | 82 | 1015.5 |
| 20260508104805 | 45 | 258 | 1.0 | 3.0 | 0.00 | 0.00 | 0.00 | 81 | 1015.3 |
| 20260508102804 | 43 | 270 | 1.0 | 3.0 | 0.00 | 0.00 | 0.00 | 83 | 1015.3 |
| 20260508101803 | 43 | 270 | 1.0 | 2.0 | 0.00 | 0.00 | 0.00 | 81 | 1015.1 |
| 20260508095804 | 45 | 270 | 1.0 | 3.0 | 0.00 | 0.00 | 0.00 | 79 | 1014.9 |
| 20260508094805 | 45 | 269 | 1.0 | 3.0 | 0.00 | 0.00 | 0.00 | 78 | 1014.9 |
| 20260508093805 | 46 | 273 | 1.0 | 6.0 | 0.00 | 0.00 | 0.00 | 77 | 1014.9 |
| 20260508093305 | 46 | 273 | 1.0 | 6.0 | 0.00 | 0.00 | 0.00 | 76 | 1014.9 |
| 20260508092804 | 46 | 270 | 1.0 | 3.0 | 0.00 | 0.00 | 0.00 | 73 | 1014.9 |
| 20260508092312 | 47 | 273 | 2.0 | 3.0 | 0.00 | 0.00 | 0.00 | 71 | 1014.8 |
| 20260508090804 | 48 | 324 | 2.0 | 6.0 | 0.00 | 0.00 | 0.00 | 69 | 1014.8 |
| 20260508090304 | 48 | 295 | 2.0 | 6.0 | 0.00 | 0.00 | 0.00 | 68 | 1014.6 |
| 20260508084804 | 49 | 295 | 2.0 | 5.0 | 0.00 | 0.00 | 0.00 | 66 | 1014.7 |
| 20260508084303 | 49 | 331 | 2.0 | 5.0 | 0.00 | 0.00 | 0.00 | 66 | 1014.6 |
| 20260508082804 | 50 | 293 | 2.0 | 6.0 | 0.00 | 0.00 | 0.00 | 63 | 1014.5 |
| 20260508081804 | 50 | 298 | 2.0 | 9.0 | 0.00 | 0.00 | 0.00 | 63 | 1014.4 |
| 20260508080804 | 50 | 272 | 2.0 | 7.0 | 0.00 | 0.00 | 0.00 | 63 | 1014.3 |
| 20260508074804 | 51 | 285 | 2.0 | 12.0 | 0.00 | 0.01 | 0.00 | 62 | 1013.6 |
| 20260508074304 | 51 | 326 | 4.0 | 9.0 | 0.00 | 0.02 | 0.00 | 63 | 1013.6 |
| 20260508073804 | 50 | 297 | 3.0 | 9.0 | 0.00 | 0.02 | 0.00 | 64 | 1013.5 |
| 20260508073304 | 50 | 302 | 3.0 | 9.0 | 0.00 | 0.02 | 0.00 | 66 | 1013.5 |
| 20260508071805 | 50 | 268 | 2.0 | 10.0 | 0.00 | 0.02 | 0.00 | 70 | 1013.2 |
| 20260508071304 | 50 | 302 | 2.0 | 9.0 | 0.00 | 0.02 | 0.00 | 71 | 1013.3 |
| 20260508070805 | 50 | 269 | 3.0 | 9.0 | 0.00 | 0.02 | 0.00 | 72 | 1013.3 |
| 20260508070304 | 50 | 281 | 2.0 | 9.0 | 0.00 | 0.02 | 0.00 | 75 | 1013.2 |
| 20260508065804 | 50 | 305 | 2.0 | 7.0 | 0.00 | 0.02 | 0.00 | 78 | 1013.1 |
| 20260508065306 | 50 | 304 | 2.0 | 7.0 | 0.00 | 0.02 | 0.00 | 79 | 1013.1 |
| 20260508064804 | 50 | 289 | 2.0 | 7.0 | 0.00 | 0.02 | 0.00 | 80 | 1013.0 |
| 20260508064306 | 50 | 288 | 2.0 | 5.0 | 0.00 | 0.02 | 0.00 | 80 | 1013.1 |
| 20260508061803 | 50 | 297 | 2.0 | 7.0 | 0.00 | 0.02 | 0.00 | 85 | 1012.9 |
| 20260508061304 | 50 | 267 | 2.0 | 7.0 | 0.00 | 0.02 | 0.00 | 85 | 1012.8 |
| 20260508060305 | 50 | 280 | 1.0 | 5.0 | 0.00 | 0.02 | 0.00 | 85 | 1012.8 |
| 20260508055804 | 50 | 287 | 2.0 | 9.0 | 0.00 | 0.02 | 0.00 | 85 | 1012.7 |
| 20260508055306 | 50 | 352 | 2.0 | 9.0 | 0.00 | 0.02 | 0.00 | 85 | 1012.7 |
| 20260508053305 | 50 | 257 | 3.0 | 8.0 | 0.00 | 0.02 | 0.00 | 84 | 1012.6 |
| 20260508052805 | 50 | 269 | 4.0 | 7.0 | 0.00 | 0.02 | 0.00 | 85 | 1012.5 |
| 20260508052306 | 50 | 263 | 2.0 | 7.0 | 0.00 | 0.03 | 0.00 | 85 | 1012.5 |
| 20260508051304 | 50 | 270 | 2.0 | 8.0 | 0.00 | 0.04 | 0.00 | 85 | 1012.4 |
| 20260508050804 | 50 | 284 | 1.0 | 8.0 | 0.00 | 0.05 | 0.00 | 86 | 1012.4 |
| 20260508045804 | 49 | 290 | 1.0 | 2.0 | 0.00 | 0.09 | 0.00 | 85 | 1012.3 |
| 20260508045306 | 50 | 294 | 0.0 | 2.0 | 0.00 | 0.10 | 0.00 | 84 | 1012.2 |
| 20260508044304 | 50 | 294 | 1.0 | 3.0 | 0.00 | 0.10 | 0.00 | 83 | 1012.1 |
| 20260508043805 | 51 | 261 | 1.0 | 3.0 | 0.00 | 0.10 | 0.00 | 83 | 1012.1 |
| 20260508042805 | 51 | 259 | 2.0 | 6.0 | 0.00 | 0.10 | 0.00 | 82 | 1012.0 |
| 20260508040815 | 52 | 246 | 2.0 | 6.0 | 0.00 | 0.10 | 0.00 | 79 | 1011.9 |
| 20260508040305 | 52 | 277 | 2.0 | 6.0 | 0.00 | 0.10 | 0.00 | 80 | 1011.9 |
| 20260508035306 | 52 | 254 | 3.0 | 5.0 | 0.00 | 0.10 | 0.10 | 80 | 1011.9 |
| 20260508034804 | 52 | 264 | 3.0 | 5.0 | 0.00 | 0.10 | 0.10 | 80 | 1011.8 |
| 20260508034304 | 52 | 250 | 2.0 | 5.0 | 0.00 | 0.10 | 0.10 | 80 | 1011.8 |
| 20260508033804 | 52 | 254 | 1.0 | 3.0 | 0.00 | 0.10 | 0.10 | 80 | 1011.8 |
| 20260508033304 | 52 | 259 | 1.0 | 6.0 | 0.00 | 0.10 | 0.10 | 79 | 1011.8 |
| 20260508031804 | 54 | 248 | 2.0 | 5.0 | 0.00 | 0.10 | 0.10 | 76 | 1011.8 |
| 20260508031305 | 53 | 206 | 1.0 | 6.0 | 0.00 | 0.10 | 0.10 | 76 | 1011.7 |
| 20260508030804 | 53 | 263 | 1.0 | 6.0 | 0.00 | 0.10 | 0.10 | 76 | 1011.7 |
| 20260508025804 | 53 | 202 | 1.0 | 3.0 | 0.00 | 0.10 | 0.10 | 76 | 1011.8 |
| 20260508025306 | 54 | 202 | 1.0 | 5.0 | 0.00 | 0.10 | 0.10 | 76 | 1011.7 |
| 20260508024304 | 54 | 202 | 1.0 | 3.0 | 0.00 | 0.10 | 0.10 | 75 | 1011.6 |
| 20260508023304 | 55 | 200 | 1.0 | 3.0 | 0.00 | 0.10 | 0.10 | 73 | 1011.5 |
| 20260508022805 | 55 | 198 | 1.0 | 3.0 | 0.00 | 0.10 | 0.10 | 72 | 1011.8 |
| 20260508022307 | 55 | 220 | 1.0 | 6.0 | 0.00 | 0.10 | 0.10 | 72 | 1011.7 |
| 20260508020304 | 55 | 220 | 2.0 | 3.0 | 0.00 | 0.10 | 0.10 | 71 | 1011.7 |
| 20260508015306 | 56 | 220 | 2.0 | 3.0 | 0.00 | 0.10 | 0.10 | 69 | 1011.7 |
| 20260508013805 | 55 | 171 | 2.0 | 3.0 | 0.00 | 0.10 | 0.10 | 71 | 1011.6 |
| 20260508012804 | 55 | 160 | 2.0 | 3.0 | 0.00 | 0.10 | 0.10 | 70 | 1011.3 |
| 20260508012307 | 55 | 162 | 1.0 | 3.0 | 0.00 | 0.10 | 0.10 | 72 | 1011.3 |
| 20260508010804 | 54 | 165 | 1.0 | 2.0 | 0.00 | 0.10 | 0.10 | 73 | 1010.9 |
| 20260508010306 | 54 | 164 | 1.0 | 3.0 | 0.00 | 0.10 | 0.10 | 72 | 1010.8 |
| 20260508005804 | 55 | 164 | 1.0 | 5.0 | 0.00 | 0.10 | 0.10 | 71 | 1010.8 |
| 20260508004304 | 55 | 156 | 0.0 | 3.0 | 0.00 | 0.10 | 0.10 | 70 | 1010.6 |
| 20260508002306 | 56 | 157 | 1.0 | 6.0 | 0.00 | 0.10 | 0.10 | 67 | 1010.3 |
| 20260508001804 | 56 | 159 | 3.0 | 5.0 | 0.00 | 0.10 | 0.10 | 68 | 1010.2 |
| 20260508000804 | 56 | 152 | 2.0 | 3.0 | 0.00 | 0.10 | 0.10 | 68 | 1010.0 |
| 20260508000305 | 56 | 152 | 1.0 | 3.0 | 0.00 | 0.10 | 0.10 | 68 | 1010.0 |
| 20260507235803 | 57 | 152 | 1.0 | 3.0 | 0.00 | 0.10 | 0.10 | 67 | 1009.9 |
| 20260507235306 | 57 | 150 | 1.0 | 3.0 | 0.00 | 0.10 | 0.10 | 65 | 1009.8 |
| 20260507234804 | 58 | 153 | 2.0 | 5.0 | 0.00 | 0.10 | 0.10 | 63 | 1009.9 |
| 20260507233804 | 59 | 164 | 2.0 | 8.0 | 0.00 | 0.10 | 0.10 | 61 | 1009.8 |
| 20260507233304 | 59 | 156 | 4.0 | 8.0 | 0.00 | 0.10 | 0.10 | 60 | 1009.8 |
| 20260507232804 | 59 | 151 | 5.0 | 7.0 | 0.00 | 0.10 | 0.10 | 59 | 1009.6 |
| 20260507232306 | 59 | 161 | 3.0 | 10.0 | 0.00 | 0.10 | 0.10 | 58 | 1009.7 |
| 20260507231304 | 60 | 158 | 3.0 | 10.0 | 0.00 | 0.10 | 0.10 | 61 | 1009.5 |
| 20260507230804 | 60 | 158 | 3.0 | 9.0 | 0.00 | 0.10 | 0.10 | 60 | 1009.5 |
| 20260507230303 | 60 | 161 | 4.0 | 10.0 | 0.00 | 0.10 | 0.10 | 59 | 1009.6 |
| 20260507225804 | 60 | 149 | 3.0 | 10.0 | 0.00 | 0.10 | 0.10 | 61 | 1009.5 |
| 20260507225306 | 61 | 164 | 3.0 | 8.0 | 0.00 | 0.10 | 0.10 | 59 | 1009.5 |
| 20260507223804 | 61 | 152 | 5.0 | 10.0 | 0.00 | 0.10 | 0.10 | 60 | 1009.4 |
| 20260507221803 | 62 | 169 | 2.0 | 10.0 | 0.00 | 0.10 | 0.10 | 60 | 1009.2 |
| 20260507220803 | 63 | 162 | 3.0 | 9.0 | 0.00 | 0.10 | 0.10 | 58 | 1009.2 |
| 20260507220304 | 63 | 129 | 3.0 | 9.0 | 0.00 | 0.10 | 0.10 | 58 | 1009.3 |
| 20260507215307 | 64 | 151 | 4.0 | 10.0 | 0.00 | 0.10 | 0.10 | 57 | 1009.3 |
| 20260507213304 | 64 | 123 | 3.0 | 7.0 | 0.00 | 0.10 | 0.10 | 53 | 1009.3 |
| 20260507211804 | 65 | 160 | 2.0 | 8.0 | 0.00 | 0.10 | 0.10 | 54 | 1009.3 |
| 20260507211304 | 65 | 144 | 4.0 | 8.0 | 0.00 | 0.10 | 0.10 | 52 | 1009.4 |
| 20260507210304 | 65 | 153 | 5.0 | 6.0 | 0.00 | 0.10 | 0.10 | 52 | 1009.5 |
| 20260507205803 | 65 | 128 | 2.0 | 6.0 | 0.00 | 0.10 | 0.10 | 55 | 1009.5 |
| 20260507205306 | 65 | 53 | 2.0 | 6.0 | 0.00 | 0.10 | 0.10 | 53 | 1009.5 |
| 20260507204304 | 65 | 166 | 3.0 | 7.0 | 0.00 | 0.10 | 0.10 | 52 | 1009.3 |
| 20260507203804 | 65 | 213 | 2.0 | 7.0 | 0.00 | 0.10 | 0.10 | 53 | 1009.3 |
| 20260507203305 | 65 | 147 | 3.0 | 7.0 | 0.00 | 0.10 | 0.10 | 49 | 1009.2 |
| 20260507202804 | 65 | 182 | 2.0 | 7.0 | 0.00 | 0.10 | 0.10 | 51 | 1009.2 |
| 20260507201805 | 65 | 154 | 1.0 | 8.0 | 0.00 | 0.10 | 0.10 | 57 | 1009.2 |
| 20260507201303 | 66 | 109 | 2.0 | 10.0 | 0.00 | 0.10 | 0.10 | 55 | 1009.2 |
| 20260507200304 | 65 | 60 | 5.0 | 8.0 | 0.00 | 0.10 | 0.10 | 53 | 1009.3 |
| 20260507195804 | 65 | 138 | 3.0 | 7.0 | 0.00 | 0.10 | 0.10 | 54 | 1009.3 |
| 20260507194804 | 66 | 206 | 5.0 | 9.0 | 0.00 | 0.10 | 0.10 | 52 | 1009.5 |
| 20260507194303 | 65 | 126 | 4.0 | 12.0 | 0.00 | 0.10 | 0.10 | 53 | 1009.6 |
| 20260507193804 | 65 | 157 | 4.0 | 12.0 | 0.00 | 0.10 | 0.10 | 54 | 1009.6 |
| 20260507192306 | 64 | 154 | 5.0 | 8.0 | 0.00 | 0.10 | 0.10 | 54 | 1009.9 |
| 20260507191804 | 64 | 122 | 2.0 | 10.0 | 0.00 | 0.10 | 0.10 | 55 | 1010.0 |
| 20260507184804 | 66 | 203 | 3.0 | 8.0 | 0.00 | 0.11 | 0.10 | 45 | 1010.2 |
| 20260507183804 | 65 | 267 | 2.0 | 9.0 | 0.00 | 0.11 | 0.10 | 44 | 1010.2 |
| 20260507182306 | 64 | 90 | 2.0 | 10.0 | 0.00 | 0.11 | 0.10 | 46 | 1010.5 |
| 20260507181304 | 63 | 38 | 6.0 | 10.0 | 0.00 | 0.11 | 0.10 | 48 | 1010.7 |
| 20260507180304 | 63 | 83 | 5.0 | 12.0 | 0.00 | 0.11 | 0.10 | 51 | 1010.8 |
| 20260507175805 | 64 | 50 | 4.0 | 12.0 | 0.00 | 0.11 | 0.10 | 47 | 1010.9 |
| 20260507175306 | 64 | 66 | 3.0 | 8.0 | 0.00 | 0.11 | 0.10 | 50 | 1010.9 |
| 20260507172804 | 63 | 44 | 3.0 | 12.0 | 0.00 | 0.11 | 0.10 | 47 | 1011.1 |